{"data":{"norad_id":61759,"epoch":"2026-09-22T21:20:05.047584Z","epoch_age_seconds":93595,"freshness":"FRESH","line1":"1 61759U 24199AA  26265.88894731  .00002341  00000+0  20102-3 0  9999","line2":"2 61759  97.3183  99.4172 0007925  98.1062 262.1061 14.98323687149768","mean_motion":14.98323687,"eccentricity":0.0007925,"inclination_deg":97.3183,"raan_deg":99.4172,"arg_perigee_deg":98.1062,"mean_anomaly_deg":262.1061,"bstar":0.00020102,"rev_number":14976,"period_min":96.107404060549,"perigee_km":566.56737010705,"apogee_km":577.58345678236,"semimajor_km":6950.2124134447,"source":"CELESTRAK","updated_at":"2026-09-23T09:00:21.029213Z"}}